Location: Desingerode
(51.5265°N, 10.1825°E)
Time: 11:48:31
(UTC+00:00)

Daily predictions for brighter satellites

Satellite Brightness Start Highest point End
(mag) Time Altitude Azimuth Time Altitude Azimuth Time Altitude Azimuth
ATLAS 5 CENTAUR R/B 3.5 19:39:16 10° NW 19:43:41 30° NNE 19:48:48 10° E
Terra 3.4 19:41:16 10° ESE 19:44:50 22° ENE 19:48:26 10° N
RESURS DK-1 3.4 19:42:06 10° SW 19:46:10 53° NW 19:50:16 10° NNE
Cosmos 332 Rocket 4.1 19:41:31 10° NNW 19:46:23 71° WSW 19:51:16 10° SSE
Meteor 2-3 Rocket 4.0 19:42:35 10° S 19:48:05 53° E 19:53:41 10° NNE
SPOT 3 Rocket 3.6 19:43:32 10° SSE 19:48:45 77° ENE 19:54:00 10° NNW
Cosmos 1933 3.3 19:47:21 10° N 19:51:26 82° E 19:55:27 10° SSE
Cosmos 1271 Rocket 2.8 19:48:42 10° N 19:52:42 75° ENE 19:56:43 10° SSE
NOSS 3-1 (C) 4.4 19:46:03 10° NW 19:52:58 57° NE 20:01:11 10° ESE
COSMOS 2428 4.3 19:48:40 10° NNW 19:53:23 25° NE 19:58:03 10° E
Cosmos 1328 Rocket 4.4 19:49:39 10° N 19:53:47 35° ENE 19:57:51 10° SE
Gbstr 26 Del rocket 3.7 19:51:01 10° W 19:54:24 33° SSW 19:57:56 10° SE
Cosmos 1766 Rocket 4.5 19:51:59 10° SSE 19:55:50 30° E 19:59:40 10° NNE
Cosmos 1538 Rocket 4.1 19:52:01 10° SSW 19:57:14 83° WNW 20:02:27 10° NNE
OBJECT-B 3.7 19:56:15 10° SW 19:58:17 16° W 20:00:19 10° NW
CZ-3B R/B 4.1 19:38:33 10° W 20:00:37 73° N 20:05:24 10° E
SPOT 5 3.6 19:57:45 10° SE 20:01:41 34° ENE 20:05:45 10° N
IGS 5A 3.9 19:58:06 10° S 20:02:13 63° WSW 20:06:21 10° NNW
Cosmos 2098 Rocket 3.4 19:59:10 10° SSW 20:02:29 55° WNW 20:06:35 10° N
ARIANE 5 R/B 3.3 19:59:10 10° SE 20:03:23 42° ENE 20:07:34 10° N
Meteor 2-19 Rocket 4.4 19:57:55 10° S 20:03:58 80° E 20:10:03 10° NNE
Cosmos 2195 Rocket 4.5 20:00:24 10° S 20:06:28 70° E 20:12:33 10° NNE
Cosmos 1782 2.8 20:03:20 10° N 20:07:23 73° E 20:11:22 10° SSE
Ariane Rocket 4.1 20:03:08 10° S 20:07:59 44° W 20:12:50 10° NNW
Landsat 7 4.2 20:04:40 10° S 20:09:23 65° WSW 20:14:09 10° NNW
Cosmos 1624 Rocket 4.1 20:05:59 10° NNW 20:11:11 65° ENE 20:16:05 12° SE
Cosmos 2082 Rocket 3.4 20:08:43 10° SW 20:14:08 47° NW 20:19:39 10° NNE
Cosmos 220 Rocket 4.0 20:10:04 10° NNW 20:14:27 84° ENE 20:18:36 11° SSE
ATLAS 3B R/B 4.2 20:12:27 10° WNW 20:18:31 31° WSW 20:24:47 10° S
Cosmos 2360 Rocket 2.3 20:13:12 10° NNW 20:18:51 72° ENE 20:23:55 13° SE
Cosmos 1420 Rocket 4.4 20:14:22 10° NNW 20:19:38 54° ENE 20:24:12 13° SE
CZ-4C R/B 4.4 20:14:25 10° WNW 20:19:38 29° N 20:25:49 10° ENE
ATLAS 2AS CENTAUR R/B 3.9 20:15:32 10° WSW 20:23:14 53° NNW 20:30:37 10° NE
Cosmos 1174 3.4 20:21:17 10° NNW 20:24:18 55° NE 20:26:29 16° ESE
Cosmos 1092 Rocket 4.2 20:21:29 10° SSW 20:27:46 82° W 20:34:10 10° N
NOSS 3-1 (A) 4.4 20:22:28 10° NW 20:29:25 59° NE 20:37:35 10° ESE
NOSS 2-1 (C) 3.4 20:29:35 10° SSW 20:32:36 35° SE 20:35:44 10° ENE
Cosmos 2151 4.0 20:28:30 10° SSW 20:32:37 47° WNW 20:36:48 10° N
ERS-2 3.6 20:29:31 10° N 20:32:58 40° WNW 20:36:23 10° SW
Cosmos 2026 Rocket 4.1 20:30:26 10° S 20:36:46 86° W 20:43:03 10° N
Cosmos 1812 2.7 20:33:34 10° N 20:37:28 80° E 20:40:31 16° SSE
Cosmos 2084 3.4 20:34:13 10° SSW 20:38:11 54° SE 20:42:18 10° NE
COSMOS 2455 3.8 20:34:50 13° SSE 20:38:53 26° ESE 20:43:44 10° NE
GP-B 3.2 20:34:36 10° N 20:39:04 78° W 20:43:30 10° S
Meteor 1-27 Rocket 4.4 20:33:48 10° N 20:39:10 42° ENE 20:43:22 16° SE
Cosmos 2333 Rocket 2.6 20:34:22 10° NNW 20:39:58 57° NE 20:44:24 16° SE
NOSS 2-1 (D) 3.1 20:37:13 10° SSW 20:40:20 42° SE 20:43:35 10° NE
Cosmos 1452 Rocket 4.2 20:37:00 10° NNW 20:42:03 45° ENE 20:45:57 16° SE
Cosmos 923 Rocket 4.3 20:38:03 10° SSW 20:43:24 77° WNW 20:48:47 10° NNE
SPOT 1/Viking Rocket 4.3 20:39:13 10° S 20:44:16 51° W 20:49:23 10° NNW
ERS-1 Rocket 3.0 20:40:25 15° SSE 20:44:40 83° ENE 20:49:44 10° NNW
USA 245 4.2 20:42:21 10° S 20:46:56 51° WSW 20:50:38 10° NNW
Cosmos 2322 4.0 20:41:29 10° NNW 20:47:11 60° NE 20:51:30 18° SE
SL-27 R/B 2.7 20:44:41 13° S 20:47:43 50° ESE 20:51:15 10° NNE
Cosmos 2056 Rocket 3.8 20:46:43 10° NNW 20:52:03 65° WSW 20:56:16 16° S
Cosmos 2237 Rocket 3.8 20:47:43 10° NNW 20:52:28 26° NE 20:57:11 10° E
Cosmos 2322 Rocket 3.0 20:47:42 10° NW 20:53:02 44° WSW 20:57:55 12° S
Okean 3 Rocket 3.7 20:48:51 10° SSW 20:53:20 82° W 20:57:55 10° N
Cosmos 1408 Rocket 3.6 20:50:55 16° S 20:54:12 58° E 20:58:28 10° NNE
Meteor 2-14 Rocket 4.4 20:49:22 10° S 20:55:30 78° E 21:01:40 10° NNE
Cosmos 1743 Rocket 4.3 20:55:45 21° SE 20:58:06 36° E 21:02:10 10° NNE
CZ-4B DEB 4.4 21:00:12 28° SE 21:01:36 57° ENE 21:04:45 10° N
Meteor 1-10 Rocket 4.2 20:57:32 10° NNW 21:03:07 90° W 21:07:17 18° S
CARTOSAT-1 4.4 20:59:31 12° S 21:03:19 46° W 21:07:30 10° NNW
USA 234 3.7 20:57:56 10° E 21:04:22 62° NNE 21:10:50 10° WNW
Gblst 52 Del rocket 4.4 21:00:01 10° WNW 21:05:59 76° SSW 21:11:50 14° ESE
Spot 2 Rocket 4.3 21:03:04 11° S 21:07:43 48° W 21:12:41 10° NNW
Cosmos 2219 Rocket 2.2 21:05:11 10° NNW 21:10:49 75° ENE 21:14:26 23° SE
Resurs 01 Rocket 4.2 21:12:21 10° SW 21:14:59 15° W 21:17:40 10° NW
Cosmos 1680 Rocket 4.2 21:12:17 10° SW 21:17:27 55° WNW 21:22:37 10° NNE
Cosmos 1515 Rocket 3.8 21:13:19 10° NNW 21:17:44 65° W 21:20:37 21° S
SL-16 R/B 4.3 21:17:26 10° NNW 21:21:35 20° NNE 21:25:41 10° E
Terra 2.1 21:19:00 21° S 21:22:11 65° WSW 21:26:57 10° NNW
Cosmos 2285 Rocket 4.0 21:15:56 10° NNW 21:22:16 77° ENE 21:26:17 24° SSE
SL-16 R/B 4.1 21:19:04 10° NW 21:23:17 22° WSW 21:27:28 10° SSW
Cosmos 2266 Rocket 4.0 21:19:57 18° S 21:24:36 74° E 21:30:53 10° NNE
Cosmos 2315 Rocket 4.1 21:20:36 10° N 21:26:57 72° ENE 21:30:56 24° SSE
IRIDIUM 103 4.4 21:22:16 10° N 21:27:29 63° E 21:30:18 27° SSE
ATLAS 5 CENTAUR R/B 2.3 21:23:39 10° NW 21:29:00 80° NE 21:33:05 23° SE
Cosmos 2333 4.4 21:24:27 10° NW 21:30:00 62° WSW 21:33:17 25° S
Cosmos 2228 Rocket 3.0 21:28:46 10° N 21:33:13 78° E 21:35:17 31° SSE
Okean 1 4.3 21:34:25 10° N 21:38:07 35° ENE 21:39:27 27° ESE
COSMOS 2428 2.7 21:32:39 10° NNW 21:38:24 87° WSW 21:41:31 28° SSE
NOSS 2-1 (E) 3.3 21:35:17 10° SW 21:38:31 63° NW 21:42:07 10° NE
SPOT 5 4.0 21:36:47 15° SSW 21:39:50 31° W 21:43:49 10° NNW
ARIANE 5 R/B 4.3 21:36:31 12° SSW 21:39:58 27° W 21:43:45 10° NW
NOSS 3-1 (C) 4.4 21:36:55 10° NW 21:44:07 56° SW 21:49:24 24° SSE
Cosmos 1707 Rocket 4.0 21:40:04 10° N 21:44:19 48° ENE 21:45:57 32° SE
IRIDIUM 106 4.3 21:40:29 10° N 21:45:45 86° E 21:48:29 29° S
Cosmos 1048 Rocket 4.0 21:48:39 30° S 21:51:05 59° ESE 21:56:07 10° NNE
Cosmos 1655 Rocket 4.5 21:54:12 14° SSW 21:59:47 62° WNW 22:06:10 10° N
USA 229 DEB 4.0 21:52:57 10° NW 22:00:09 65° SW 22:04:27 28° SSE
USA 229 4.0 21:53:03 10° NW 22:00:15 66° SW 22:04:33 28° SSE
ALOS 2 3.4 21:59:23 29° ESE 22:01:03 41° ENE 22:05:12 10° N
COSMOS 2487 2.4 22:00:10 42° SW 22:01:12 76° WNW 22:04:37 10° NNE
Cosmos 2360 Rocket 3.9 21:57:59 10° NW 22:02:19 23° WSW 22:05:41 14° SW
Cosmos 972 Rocket 3.9 21:59:18 23° SSW 22:02:40 87° WNW 22:07:38 10° NNE
Cosmos 1302 Rocket 4.5 21:57:39 10° NNW 22:02:46 52° ENE 22:05:22 27° ESE
Cosmos 1805 Rocket 3.5 22:02:11 35° S 22:04:03 88° W 22:08:31 10° N
Cosmos 2084 Rocket 3.3 22:03:42 10° NW 22:07:53 90° SW 22:09:17 42° SE
CZ-4C R/B 3.8 22:03:34 10° NW 22:09:50 43° NNE 22:17:17 10° E
USA 267 3.5 22:05:10 10° ENE 22:11:22 44° SE 22:14:48 25° SSW
Cosmos 1980 3.7 22:09:07 10° NNW 22:14:48 76° ENE 22:17:31 32° SE
NOSS 0 Rocket 3.9 22:09:40 10° NW 22:15:56 79° WSW 22:18:54 33° SSE
NOSS 3-1 (A) 4.3 22:13:23 10° NW 22:20:36 55° SW 22:25:00 29° S
Cosmos 2333 Rocket 3.4 22:19:04 10° NW 22:23:57 31° WSW 22:26:23 22° SW
COSMOS 2455 3.0 22:18:16 10° SW 22:24:17 76° NW 22:30:21 10° NE
Lacrosse 5 2.6 22:25:49 33° SE 22:25:49 33° SE 22:30:06 10° ENE
Meteor 1-20 Rocket 4.2 22:23:03 30° SSW 22:26:00 82° WNW 22:31:47 10° NNE
Nadezhda 2 Rocket 4.5 22:23:24 31° S 22:26:45 87° E 22:33:14 10° N
COBE Rocket 4.1 22:26:51 36° SSW 22:28:30 57° W 22:33:11 10° NNW
NOSS 2-2 (D) 4.2 22:24:40 10° NW 22:29:41 87° NE 22:33:24 28° SE
Cosmos 972 4.5 22:28:20 32° SSW 22:30:55 86° ESE 22:36:01 10° NNE
BREEZE-M R/B 2.8 22:31:56 45° SE 22:31:56 45° SE 22:36:13 10° E
Cosmos 2297 Rocket 2.8 22:32:08 34° SE 22:33:30 39° ESE 22:38:45 10° NE
Cosmos 1500 3.1 22:34:31 62° SSE 22:35:00 73° E 22:38:53 10° NNE
Sich 1 3.5 22:34:10 32° SW 22:35:54 55° WNW 22:40:10 10° N
Cosmos 2237 Rocket 2.1 22:31:29 10° NNW 22:37:12 82° WSW 22:39:29 38° SSE
Cosmos 1244 Rocket 4.4 22:34:48 32° SSW 22:37:54 86° W 22:44:11 10° N
BREEZE-M DEB (TANK) 4.3 22:41:21 10° W 22:42:19 14° WSW 22:42:19 14° WSW
Cosmos 1470 Rocket 3.7 22:43:08 47° SE 22:43:54 54° E 22:48:07 10° NNE
Cosmos 1633 Rocket 2.9 22:44:03 50° SSW 22:45:10 88° W 22:49:33 10° N
Cosmos 2227 Rocket 2.9 22:44:30 33° SE 22:45:46 37° ESE 22:50:56 10° NE
USA 234 3.2 22:42:59 23° SE 22:47:20 77° SSW 22:53:55 10° WNW
Cosmos 1933 Rocket 4.2 22:49:28 39° ESE 22:50:17 43° E 22:54:31 10° NNE
APEX 4.4 22:48:05 30° SSW 22:51:18 88° ESE 22:58:08 10° NNE
Cosmos 1666 Rocket 3.8 22:50:45 41° SW 22:52:10 64° WNW 22:56:37 10° N
Cosmos 2242 Rocket 4.1 22:48:15 10° N 22:52:33 49° ENE 22:53:45 38° ESE
Cosmos 2219 Rocket 3.7 22:50:01 10° NW 22:54:12 22° WSW 22:56:08 18° SW
Cosmos 1340 Rocket 3.3 22:54:24 41° ESE 22:54:38 42° E 22:58:23 10° NNE
Cosmos 1378 3.6 22:51:49 10° N 22:55:25 46° ENE 22:55:52 44° E
Cosmos 44 4.4 22:58:28 10° NW 23:03:37 45° NE 23:07:58 13° ESE
SL-16 R/B 2.4 23:01:06 10° NNW 23:06:47 68° ENE 23:09:38 30° SE
Cosmos 1862 Rocket 4.3 23:09:07 10° NNW 23:13:12 41° W 23:14:06 36° WSW
ATLAS 5 CENTAUR R/B 3.5 23:08:40 10° WNW 23:13:25 28° WSW 23:14:34 26° SW
Okean 3 4.1 23:10:46 10° N 23:14:56 47° ENE 23:16:01 38° ESE
Meteor 2-4 Rocket 4.2 23:17:04 10° NNW 23:22:49 52° W 23:24:59 35° SSW
Intercosmos 25 Rocket 4.1 23:24:02 43° SE 23:25:08 54° E 23:31:08 10° NNE
Cosmos 1743 4.0 23:25:44 28° E 23:26:06 28° E 23:29:24 10° NNE
Cosmos 1666 3.0 23:26:25 51° WSW 23:26:58 57° WNW 23:30:47 10° N
Meteor 1-11 Rocket 3.9 23:25:58 39° SSE 23:27:49 59° E 23:33:14 10° NNE
Cosmos 1703 Rocket 3.5 23:24:26 10° NNW 23:28:48 76° W 23:29:38 56° SSW
PSLV R/B 3.9 23:28:11 10° NNE 23:32:57 63° ESE 23:34:07 47° SSE
Cosmos 1709 Rocket 4.0 23:30:39 38° S 23:33:20 80° E 23:39:45 10° NNE
Cosmos 1992 Rocket 4.0 23:29:56 10° NNW 23:35:09 71° WSW 23:36:41 45° S
ASTEX 1 4.3 23:35:16 27° SE 23:37:23 41° ENE 23:42:01 10° N
ALOS 2 3.9 23:36:46 25° WSW 23:37:31 26° W 23:41:16 10° NW
Meteor 1-5 Rocket 4.5 23:35:45 35° SW 23:38:15 66° WNW 23:44:10 10° N
Cosmos 1943 4.5 23:33:23 10° NNW 23:38:44 39° NE 23:44:02 10° ESE
Cosmos 909 Rocket 4.3 23:36:15 35° SSW 23:39:21 70° ESE 23:47:17 10° NE
Cosmos 1745 Rocket 4.3 23:39:16 31° SW 23:42:16 59° WNW 23:48:32 10° N
CZ-2D R/B 4.1 23:39:07 10° NE 23:42:48 18° E 23:45:32 13° ESE
Cosmos 2219 3.2 23:42:22 35° SW 23:44:54 83° WNW 23:50:43 10° NNE
Cosmos 1066 Rocket 4.3 23:40:36 10° NNW 23:46:29 77° W 23:48:42 40° S
Cosmos 1269 Rocket 4.5 23:47:42 29° SW 23:50:13 55° WNW 23:55:26 10° NNE
Meteor 1-13 Rocket 4.4 23:44:46 10° NNW 23:50:28 62° W 23:52:26 39° SSW
Meteor 1-23 Rocket 4.2 23:47:30 10° NNW 23:53:15 86° ENE 23:55:43 37° SSE
Timation 1 Rocket 4.3 23:51:20 37° SSW 23:53:53 85° ESE 23:59:56 10° NNE
Okean 1-7 3.6 23:51:42 10° NNW 23:55:43 41° W 23:56:20 39° WSW
